FW9752 Weather Reports


time (UTC)temp
C
wind
direction
speed
KPH
gust
KPH
rain 1hr
cm
rain 24hr
cm
rain mn
cm
humidity
%
barometer
mb
20260504081543 17 266 3.2 6.4 0.00 0.00 0.00 63 1007.8
20260504044536 19 266 8.0 12.9 0.00 0.00 0.00 58 1008.6
20260504043047 20 266 6.4 11.3 0.00 0.00 0.00 57 1008.6
20260504041542 20 266 6.4 11.3 0.00 0.00 0.00 56 1008.8
20260504040047 20 266 6.4 14.5 0.00 0.00 0.00 57 1009.1
20260504034541 20 266 6.4 14.5 0.00 0.00 0.00 56 1009.2
20260504033036 20 271 9.7 16.1 0.00 0.00 0.00 55 1009.2
20260504031554 21 277 8.0 19.3 0.00 0.00 0.00 55 1009.4
20260504030044 21 266 11.3 17.7 0.00 0.00 0.00 55 1009.3
20260504024540 21 266 9.7 20.9 0.00 0.00 0.00 55 1009.3
20260504023043 21 266 9.7 22.5 0.00 0.00 0.00 54 1009.1
20260504021540 21 266 9.7 17.7 0.00 0.00 0.00 53 1009.1
20260504020039 21 266 6.4 16.1 0.00 0.00 0.00 53 1009.2
20260504014546 22 266 9.7 17.7 0.00 0.00 0.00 52 1009.3
20260504013046 22 266 8.0 16.1 0.00 0.00 0.00 51 1009.1
20260504011542 22 266 8.0 16.1 0.00 0.00 0.00 49 1009.2
20260504010048 23 273 9.7 14.5 0.00 0.00 0.00 48 1008.9
20260504004541 23 284 11.3 19.3 0.00 0.00 0.00 47 1009.0
20260504003040 24 266 9.7 22.5 0.00 0.00 0.00 47 1009.2
20260504001548 25 269 9.7 24.1 0.00 0.00 0.00 45 1009.2
20260504000036 25 282 11.3 20.9 0.00 0.00 0.00 45 1009.3
20260503234601 25 301 14.5 20.9 0.00 0.00 0.00 44 1009.5
20260503233047 25 293 11.3 24.1 0.00 0.00 0.00 45 1009.6
20260503231539 25 271 14.5 24.1 0.00 0.00 0.00 44 1009.6
20260503230041 25 278 8.0 17.7 0.00 0.00 0.00 45 1009.7
20260503224536 25 297 11.3 27.4 0.00 0.00 0.00 43 1009.7
20260503223043 25 293 12.9 25.7 0.00 0.00 0.00 41 1009.8
20260503221553 25 266 16.1 32.2 0.00 0.00 0.00 41 1009.8
20260503220043 26 276 17.7 37.0 0.00 0.00 0.00 40 1009.8
20260503214539 26 291 16.1 29.0 0.00 0.00 0.00 40 1009.8
20260503213038 26 267 11.3 35.4 0.00 0.00 0.00 41 1009.8
20260503211546 26 275 25.7 38.6 0.00 0.00 0.00 39 1010.1
20260503210043 26 285 19.3 41.8 0.00 0.00 0.00 42 1010.2
20260503204545 26 279 17.7 32.2 0.00 0.00 0.00 42 1010.2
20260503203053 25 266 22.5 35.4 0.00 0.00 0.00 41 1010.3
20260503201544 25 292 25.7 40.2 0.00 0.00 0.00 42 1010.7
20260503200039 25 290 27.4 40.2 0.00 0.00 0.00 42 1010.9
20260503194550 25 266 14.5 46.7 0.00 0.00 0.00 46 1011.0
20260503193043 24 267 19.3 41.8 0.00 0.00 0.00 45 1011.1
20260503191544 24 266 27.4 45.1 0.00 0.00 0.00 45 1011.3
20260503190042 23 267 22.5 41.8 0.00 0.00 0.00 46 1011.8
20260503184539 23 276 20.9 37.0 0.00 0.00 0.00 45 1012.1
20260503183036 22 267 25.7 40.2 0.00 0.00 0.00 45 1012.4
20260503181543 22 269 22.5 40.2 0.00 0.00 0.00 45 1012.8
20260503180055 22 267 17.7 40.2 0.00 0.00 0.00 47 1013.3
20260503174543 22 267 17.7 38.6 0.00 0.00 0.00 45 1013.7
20260503173041 21 267 17.7 35.4 0.00 0.00 0.00 46 1014.2
20260503171546 21 267 17.7 30.6 0.00 0.00 0.00 47 1014.6